Simultaneous Nadir Overpasses (SNOs) Predictions

Prediction of SNOs between AQUA and NOAA-19 Satellite Orbit:

Table of predicted SNOs for the next 14.0 days since TLE Epoch: 6/28/2025
Index Date (AQUA) Time (AQUA) Lat,Lon (AQUA) SZA (AQUA ) Date (NOAA-19) Time (NOAA-19) Lat,Lon (NOAA-19) SZA (NOAA-19 ) Distance(km) Time Diff (sec)
1 06/29/2025 08:44:29 -75.74,-125.14 127.48 06/29/2025 08:44:05 -75.77,-125.13 127.45 3.70 24
2 06/29/2025 09:33:48 75.81, 42.32 52.59 06/29/2025 09:34:58 75.82, 42.29 52.60 0.84 70
3 07/01/2025 10:51:46 75.75, 23.06 52.66 07/01/2025 10:51:16 75.75, 23.02 52.65 1.29 30
4 07/01/2025 11:41:05 -75.83,-169.49 127.27 07/01/2025 11:42:15 -75.84,-169.42 127.25 2.18 70
5 07/03/2025 12:59:02 -75.78, 171.23 127.16 07/03/2025 12:58:32 -75.74, 171.23 127.20 4.20 30
6 07/03/2025 13:48:21 75.81, -21.19 52.88 07/03/2025 13:49:26 75.82, -21.21 52.90 2.12 65
7 07/05/2025 15:06:18 75.78, -40.53 53.04 07/05/2025 15:05:43 75.74, -40.51 53.00 3.42 35
8 07/05/2025 15:55:37 -75.84, 126.94 126.90 07/05/2025 15:56:41 -75.84, 127.06 126.90 3.22 64
9 07/07/2025 17:13:33 -75.77, 107.72 126.75 07/07/2025 17:12:57 -75.77, 107.82 126.75 2.93 36
10 07/07/2025 18:02:52 75.81, -84.72 53.29 07/07/2025 18:03:53 75.82, -84.77 53.30 1.67 61
11 07/09/2025 19:20:48 75.76,-103.99 53.49 07/09/2025 19:20:09 75.77,-103.95 53.50 1.96 39
12 07/09/2025 20:10:07 -75.82, 63.49 126.46 07/09/2025 20:11:07 -75.82, 63.46 126.45 0.90 60
13 07/11/2025 21:28:02 -75.73, 44.33 126.27 07/11/2025 21:27:23 -75.75, 44.20 126.26 3.85 39



Historial Predications of SNOs between AQUA and NOAA-19
